TimeCDT,TemperatureF,Dew PointF,Humidity,Sea Level PressureIn,VisibilityMPH,Wind Direction,Wind SpeedMPH,Gust SpeedMPH,PrecipitationIn,Events,Conditions,WindDirDegrees,DateUTC
12:53 AM,66.9,64.9,93,29.90,9.0,Calm,Calm,-,N/A,,Clear,0,2013-05-10 05:53:00
1:53 AM,66.9,66.0,97,29.91,8.0,NW,4.6,-,N/A,,Clear,320,2013-05-10 06:53:00
2:39 AM,64.4,64.4,100,29.89,1.5,Calm,Calm,-,N/A,,Clear,0,2013-05-10 07:39:00
2:49 AM,64.4,64.4,100,29.90,0.5,Calm,Calm,-,N/A,Fog,Fog,0,2013-05-10 07:49:00
2:53 AM,64.9,64.0,97,29.90,0.8,Calm,Calm,-,N/A,,Scattered Clouds,0,2013-05-10 07:53:00
3:01 AM,64.4,64.4,100,29.89,2.0,Calm,Calm,-,N/A,,Mostly Cloudy,0,2013-05-10 08:01:00
3:10 AM,66.2,64.4,94,29.89,3.0,Calm,Calm,-,N/A,,Mostly Cloudy,0,2013-05-10 08:10:00
3:53 AM,66.0,64.9,96,29.89,3.0,Calm,Calm,-,N/A,,Overcast,0,2013-05-10 08:53:00
4:36 AM,66.2,64.4,94,29.89,4.0,Calm,Calm,-,N/A,,Overcast,0,2013-05-10 09:36:00
4:53 AM,66.0,64.9,96,29.89,4.0,Calm,Calm,-,N/A,,Overcast,0,2013-05-10 09:53:00
5:28 AM,66.2,66.2,100,29.91,4.0,Calm,Calm,-,N/A,,Overcast,0,2013-05-10 10:28:00
5:53 AM,66.9,66.0,97,29.93,5.0,Calm,Calm,-,N/A,,Overcast,0,2013-05-10 10:53:00
6:34 AM,66.2,66.2,100,29.95,8.0,South,3.5,-,N/A,,Overcast,170,2013-05-10 11:34:00
6:49 AM,66.2,64.4,94,29.95,7.0,Calm,Calm,-,N/A,,Overcast,0,2013-05-10 11:49:00
6:53 AM,66.9,66.0,97,29.94,7.0,Calm,Calm,-,N/A,,Overcast,0,2013-05-10 11:53:00
8:53 AM,71.1,66.0,84,29.95,10.0,West,5.8,-,N/A,,Mostly Cloudy,270,2013-05-10 13:53:00
9:53 AM,73.0,64.9,76,29.96,10.0,WSW,4.6,-,N/A,,Partly Cloudy,240,2013-05-10 14:53:00
10:49 AM,73.4,64.4,73,29.97,10.0,SW,5.8,-,N/A,,Mostly Cloudy,230,2013-05-10 15:49:00
10:53 AM,75.9,66.0,71,29.96,10.0,Variable,4.6,-,N/A,,Mostly Cloudy,0,2013-05-10 15:53:00
11:04 AM,75.2,66.2,73,29.96,10.0,West,6.9,-,N/A,,Mostly Cloudy,260,2013-05-10 16:04:00
11:43 AM,75.2,66.2,73,29.97,10.0,SSW,6.9,-,N/A,,Mostly Cloudy,200,2013-05-10 16:43:00
12:53 PM,77.0,66.9,71,29.94,10.0,South,6.9,-,N/A,,Scattered Clouds,190,2013-05-10 17:53:00
1:53 PM,77.0,66.0,69,29.95,10.0,South,5.8,-,N/A,,Scattered Clouds,190,2013-05-10 18:53:00
2:53 PM,80.1,66.9,64,29.93,10.0,South,6.9,-,N/A,,Clear,170,2013-05-10 19:53:00
3:53 PM,80.1,66.0,62,29.90,10.0,SSW,8.1,-,N/A,,Scattered Clouds,200,2013-05-10 20:53:00
4:53 PM,80.1,66.0,62,29.86,10.0,SSE,6.9,-,N/A,,Scattered Clouds,160,2013-05-10 21:53:00
5:53 PM,80.1,64.9,60,29.86,10.0,WSW,9.2,-,N/A,,Scattered Clouds,250,2013-05-10 22:53:00
6:53 PM,78.1,64.9,64,29.87,10.0,SW,5.8,-,N/A,,Partly Cloudy,230,2013-05-10 23:53:00
7:53 PM,77.0,64.9,66,29.89,10.0,WSW,5.8,-,N/A,,Partly Cloudy,240,2013-05-11 00:53:00
8:53 PM,71.1,63.0,75,29.93,4.0,West,6.9,-,0.03,Rain,Rain,280,2013-05-11 01:53:00
9:53 PM,71.1,66.0,84,29.96,10.0,Calm,Calm,-,0.03,,Overcast,0,2013-05-11 02:53:00
10:53 PM,70.0,64.9,84,29.98,10.0,Calm,Calm,-,N/A,,Scattered Clouds,0,2013-05-11 03:53:00
11:53 PM,69.1,64.9,87,30.00,10.0,Calm,Calm,-,N/A,,Mostly Cloudy,0,2013-05-11 04:53:00